This demonstration page uses our WeatherBlox Daily Observations layout. Learn more.

Left ArrowRight Arrow

Hourly Observations for June 15, 2019

Temp ( °F °C ) Dew Point ( °F °C ) Humidity (%) Winds ( mph kmh ) Pressure ( in mb ) Visibility ( mi km ) Precip ( " mm )
12:53 am 00:53 Clear 49 9.4 47 8.3 93 93 WSW 8 13 29.89 1012 10 16 0.00 0.00
1:53 am 01:53 Clear 50 10 47 8.3 89 89 SW 9 15 29.90 1012 10 16 0.00 0.00
2:53 am 02:53 Clear 51 10.6 47 8.3 86 86 SW 14 22 29.91 1013 10 16 0.00 0.00
3:53 am 03:53 Clear 48 8.9 46 7.8 93 93 WSW 7 11 29.93 1014 10 16 0.00 0.00
4:53 am 04:53 Clear 48 8.9 46 7.8 93 93 WSW 9 15 29.94 1014 10 16 0.00 0.00
5:53 am 05:53 Mostly Cloudy 51 10.6 47 8.3 86 86 SW 10 17 29.96 1014 10 16 0.00 0.00
6:53 am 06:53 Sunny 55 12.8 49 9.4 80 80 SW 7 11 29.96 1015 10 16 0.00 0.00
7:53 am 07:53 Sunny 59 15 49 9.4 69 69 WSW 8 13 29.96 1015 10 16 0.00 0.00
8:53 am 08:53 Mostly Cloudy 62 16.7 50 10 65 65 WSW 8 13 29.96 1015 10 16 0.00 0.00
9:53 am 09:53 Sunny 67 19.4 46 7.8 47 47 WNW 9 15 29.96 1015 10 16 0.00 0.00
10:53 am 10:53 Mostly Cloudy 70 21.1 47 8.3 44 44 WNW 13 20 29.96 1015 10 16 0.00 0.00
11:53 am 11:53 Mostly Cloudy 73 22.8 44 6.7 35 35 WNW 7 11 29.96 1014 10 16 0.00 0.00
12:53 pm 12:53 Mostly Cloudy 73 22.8 43 6.1 34 34 WNW 13 20 29.95 1014 10 16 0.00 0.00
1:53 pm 13:53 Cloudy 73 22.8 42 5.6 33 33 WNW 14 22 29.94 1014 10 16 0.00 0.00
2:24 pm 14:24 Cloudy 71 21.7 46 7.8 41 41 SW 15 24 29.85 1011 10 16 0.00 0.00
2:53 pm 14:53 Mostly Cloudy 73 22.8 48 8.9 41 41 SW 20 31 29.93 1014 10 16 0.00 0.00
3:53 pm 15:53 Partly Cloudy 74 23.3 45 7.2 36 36 W 12 19 29.93 1014 10 16 0.00 0.00
4:53 pm 16:53 Mostly Sunny 77 25 44 6.7 31 31 W 12 19 29.91 1013 10 16 0.00 0.00
5:53 pm 17:53 Cloudy 74 23.3 43 6.1 33 33 WNW 14 22 29.91 1013 10 16 0.00 0.00
6:22 pm 18:22 Mostly Cloudy 70 21 46 8 43 43 WSW 16 26 29.82 1010 10 16 0.00 0.00
6:53 pm 18:53 Mostly Cloudy 70 21.1 48 8.9 46 46 SSW 5 7 29.91 1013 10 16 0.00 0.00
7:53 pm 19:53 Mostly Cloudy 69 20.6 47 8.3 45 45 E 8 13 29.92 1013 10 16 0.00 0.00
8:53 pm 20:53 Partly Cloudy 65 18.3 51 10.6 61 61 SE 5 7 29.93 1013 10 16 0.00 0.00
9:53 pm 21:53 Partly Cloudy 58 14.4 48 8.9 70 70 S 8 13 29.95 1014 10 16 0.00 0.00
10:53 pm 22:53 Clear 57 13.9 47 8.3 69 69 N 3 6 29.96 1014 10 16 0.00 0.00
11:53 pm 23:53 Mostly Clear 56 13.3 47 8.3 72 72 NE 5 7 29.96 1014 10 16 0.00 0.00

Powered by AerisWeather